Starlink 3580

operational
NORAD ID: 51781 Int'l Des: 2022-017 Owner: SPXS Country: US Constellation: starlink
LEOCIRCULAR

Starlink 3580について

説明を読み込み中...

リアルタイム位置

3D地球を読み込み中...

次回通過

高度履歴

Altitude vs Time

uPlot chart will show altitude changes over time

軌道要素

1 51781U 22017P 25304.41222433 .00000850 00000-0 71499-4 0 9996
2 51781 53.2171 199.4311 0001255 88.0407 272.0729 15.08839034202904
Epoch: Oct 31, 2025 • Age: 27 hours

現在のステータス

高度 545.0 km
速度 7.60 km/s
衛星直下点 51.01°N, 65.78°E
打ち上げ日 Feb 25, 2022
運用期間 3.6 years
タイプ internet

技術仕様

分類 Payload
質量 297.00 kg
乾燥質量 275.00 kg
総質量 297.00 kg
長さ 0.20 m
直径 2.80 m
スパン 9.00 m
形状 Box + pan
製造者 SPXS
バスタイプ Starlink
フェーズステータス In Orbit
所有者/国 SPXS/US

大規模コンステレーション

Loading constellations...